Waarnemingen

Advertentie
Mijn weer
K14A, Nederland (6204): temperatuur & dauwpunt: 19.06.2018 06:00:00 - 25.06.2018 06:00:00 (CEST)K14A, Nederland (6204): windsnelheid & windstoten: 19.06.2018 06:00:00 - 25.06.2018 06:00:00 (CEST)K14A, Nederland (6204): windrichting: 19.06.2018 06:00:00 - 25.06.2018 06:00:00 (CEST)K14A, Nederland (6204): luchtdruk: 19.06.2018 06:00:00 - 25.06.2018 06:00:00 (CEST)K14A, Nederland (6204): zicht: 19.06.2018 06:00:00 - 25.06.2018 06:00:00 (CEST)
Datum & Tijd tt [°C] td [°C] ff [km/u] ff [kn] fx [km/u] fx [kn] dd ppp [hPa] vv [km]
25.06.2018 06:00:00 11,8 11,7 16 9 18 10 NW 1025,9 0,3
25.06.2018 05:00:00 12,1 11,9 11 6 14 8 NNW 1025,4 8
25.06.2018 04:00:00 12,7 11,9 11 6 18 10 NNW 1025,4 10
25.06.2018 03:00:00 12,7 11,9 11 6 14 8 N 1025,4 10
25.06.2018 02:00:00 12,8 11,9 15 8 22 12 N 1025,3 10
25.06.2018 01:00:00 13,0 11,8 22 12 22 12 N 1025,6 10
25.06.2018 00:00:00 13,0 11,6 22 12 25 14 N 1025,5 10
24.06.2018 23:00:00 13,1 11,6 22 12 25 14 N 1025,6 10
24.06.2018 22:00:00 13,3 11,5 24 13 29 16 N 1025,4 10
24.06.2018 21:00:00 13,3 10,9 29 16 29 16 N 1025,0 10
24.06.2018 20:00:00 13,5 10,9 28 15 29 16 NNW 1025,3 10
24.06.2018 19:00:00 13,7 11,2 26 14 25 14 NNW 1025,4 10
24.06.2018 18:00:00 13,7 11,6 26 14 25 14 NNW 1025,5 10
24.06.2018 17:00:00 13,6 11,4 24 13 25 14 NNW 1025,7 10
24.06.2018 16:00:00 13,6 11,4 24 13 29 16 WNW 1025,4 10
24.06.2018 15:00:00 13,5 10,8 21 11 29 16 - 1025,7 10
24.06.2018 14:00:00 13,6 10,1 18 10 25 14 WNW 1025,8 10
24.06.2018 13:00:00 13,2 10,2 21 11 25 14 - 1025,8 10
24.06.2018 12:00:00 13,2 10,2 22 12 25 14 NW 1025,8 10
24.06.2018 11:00:00 12,9 10,7 24 13 25 14 NW 1025,7 10
24.06.2018 10:00:00 12,7 10,8 24 13 25 14 NW 1025,5 10
24.06.2018 09:00:00 12,6 10,5 15 8 25 14 - 1025,4 10
24.06.2018 08:00:00 12,5 10,4 22 12 25 14 NW 1025,3 10
24.06.2018 07:00:00 12,4 9,7 22 12 22 12 NNW 1025,1 10
24.06.2018 06:00:00 12,4 9,4 18 10 22 12 NNW 1025,0 10
24.06.2018 05:00:00 12,4 9,9 18 10 18 10 NNW 1024,7 10
24.06.2018 04:00:00 12,4 9,6 16 9 18 10 NNW 1025,0 10
24.06.2018 03:00:00 12,6 9,4 15 8 18 10 N 1025,1 10
24.06.2018 02:00:00 12,7 9,8 16 9 18 10 N 1025,5 10
24.06.2018 01:00:00 12,7 9,9 16 9 18 10 N 1025,6 10
24.06.2018 00:00:00 12,9 9,9 18 10 22 12 N 1025,8 10
23.06.2018 23:00:00 12,9 10,4 22 12 25 14 N 1026,0 10
23.06.2018 22:00:00 12,9 10,9 22 12 22 12 N 1025,8 10
23.06.2018 21:00:00 13,2 10,7 16 9 18 10 NNW 1025,6 10
23.06.2018 20:00:00 12,9 10,6 15 8 18 10 NNW 1025,5 10
23.06.2018 19:00:00 13,0 10,8 18 10 22 12 NNW 1025,6 10
23.06.2018 18:00:00 13,4 11,2 22 12 29 16 W 1026,1 10
23.06.2018 17:00:00 14,2 11,6 18 10 25 14 W 1026,6 10
23.06.2018 16:00:00 13,5 11,0 18 10 22 12 WZW 1026,8 10
23.06.2018 15:00:00 13,6 9,7 18 10 18 10 ZW 1026,9 10
23.06.2018 14:00:00 13,7 9,0 18 10 18 10 ZW 1027,5 10
23.06.2018 13:00:00 13,7 8,7 9 5 11 6 ZW 1027,7 10
23.06.2018 12:00:00 14,3 10,6 9 5 18 10 W 1027,9 10
23.06.2018 11:00:00 12,9 10,3 15 8 22 12 W 1028,0 10
23.06.2018 10:00:00 12,8 10,2 22 12 25 14 W 1028,3 10
23.06.2018 09:00:00 12,7 10,2 24 13 25 14 WNW 1028,1 10
23.06.2018 08:00:00 12,7 10,1 22 12 29 16 W 1028,2 10
23.06.2018 07:00:00 12,6 10,0 26 14 32 18 WNW 1028,4 10
23.06.2018 06:00:00 12,5 9,7 26 14 32 18 WNW 1028,3 10
23.06.2018 05:00:00 12,3 9,7 29 16 36 19 W 1028,7 10
23.06.2018 04:00:00 12,3 9,8 24 13 32 18 WNW 1028,6 10
23.06.2018 03:00:00 12,2 9,4 24 13 29 16 WNW 1028,9 10
23.06.2018 02:00:00 12,3 8,9 26 14 29 16 WNW 1029,1 10
23.06.2018 01:00:00 12,3 8,6 24 13 29 16 NW 1029,1 10
23.06.2018 00:00:00 12,3 8,6 28 15 29 16 NW 1029,4 10
22.06.2018 23:00:00 12,0 8,3 28 15 32 18 NNW 1029,2 10
22.06.2018 22:00:00 12,0 8,2 34 18 36 19 NW 1029,2 10
22.06.2018 21:00:00 12,2 8,5 34 18 36 19 NNW 1029,1 10
22.06.2018 20:00:00 12,1 7,6 39 21 40 21 NW 1029,2 10
22.06.2018 19:00:00 12,2 7,0 44 24 43 23 NW 1029,5 10
22.06.2018 18:00:00 12,2 7,3 41 22 43 23 NW 1029,1 10
22.06.2018 17:00:00 12,3 7,3 41 22 40 21 NW 1029,0 10
22.06.2018 16:00:00 12,2 7,2 42 23 43 23 NW 1028,9 10
22.06.2018 15:00:00 12,3 7,4 41 22 43 23 NW 1028,7 10
22.06.2018 14:00:00 12,1 8,1 42 23 47 25 NW 1028,7 10
22.06.2018 13:00:00 12,2 8,1 46 25 50 27 NW 1028,3 10
22.06.2018 12:00:00 12,1 7,9 42 23 47 25 NW 1027,8 10
22.06.2018 11:00:00 12,2 7,7 44 24 50 27 NW 1027,4 10
22.06.2018 10:00:00 11,9 8,1 48 26 50 27 NW 1027,1 10
22.06.2018 09:00:00 11,8 7,7 50 27 54 29 NNW 1026,6 10
22.06.2018 08:00:00 11,6 8,2 55 30 58 31 NW 1026,2 10
22.06.2018 07:00:00 12,2 6,9 57 31 65 35 NW 1025,9 10
22.06.2018 06:00:00 12,2 4,9 67 36 68 37 NW 1025,5 10
22.06.2018 05:00:00 12,7 6,6 65 35 65 35 NW 1025,1 10
22.06.2018 04:00:00 12,5 8,2 57 31 61 33 WNW 1025,0 10
22.06.2018 03:00:00 12,5 8,4 52 28 58 31 WNW 1025,0 10
22.06.2018 02:00:00 12,6 7,6 52 28 54 29 WNW 1025,5 10
22.06.2018 01:00:00 12,7 8,3 48 26 58 31 WNW 1025,4 10
22.06.2018 00:00:00 12,5 7,0 52 28 58 31 WNW 1025,9 10
21.06.2018 23:00:00 12,6 7,1 52 28 54 29 WNW 1025,5 10
21.06.2018 22:00:00 12,6 6,2 54 29 58 31 WNW 1025,7 10
21.06.2018 21:00:00 12,7 7,2 50 27 54 29 WNW 1025,4 10
21.06.2018 20:00:00 12,4 5,6 48 26 54 29 WNW 1025,6 10
21.06.2018 19:00:00 12,1 6,8 48 26 54 29 WNW 1025,8 10
21.06.2018 18:00:00 12,1 5,8 52 28 54 29 NW 1025,5 10
21.06.2018 17:00:00 12,1 7,8 52 28 54 29 WNW 1025,0 10
21.06.2018 16:00:00 11,8 7,9 55 30 54 29 NW 1024,1 10
21.06.2018 15:00:00 12,1 8,1 52 28 54 29 WNW 1023,1 10
21.06.2018 14:00:00 12,2 7,3 55 30 58 31 NW 1022,1 10
21.06.2018 13:00:00 12,1 8,0 48 26 61 33 NW 1021,4 10
21.06.2018 12:00:00 11,5 7,3 54 29 61 33 WNW 1020,8 10
21.06.2018 11:00:00 11,5 6,4 54 29 58 31 WNW 1020,4 10
21.06.2018 10:00:00 11,5 6,2 55 30 61 33 WNW 1019,3 10
21.06.2018 09:00:00 11,8 6,7 57 31 58 31 WNW 1018,6 10
21.06.2018 08:00:00 12,0 7,0 52 28 54 29 WNW 1017,8 10
21.06.2018 07:00:00 12,3 7,7 44 24 50 27 WNW 1017,8 10
21.06.2018 06:00:00 12,7 8,6 44 24 50 27 WNW 1017,4 10
21.06.2018 05:00:00 12,7 10,4 39 21 36 19 WNW 1017,0 10
21.06.2018 04:00:00 12,9 11,4 29 16 32 18 WNW 1016,9 10
21.06.2018 03:00:00 13,0 11,7 24 13 25 14 WNW 1017,0 10
21.06.2018 02:00:00 13,2 11,8 16 9 18 10 WNW 1016,8 10
21.06.2018 01:00:00 13,3 12,0 16 9 18 10 NW 1017,3 10
21.06.2018 00:00:00 13,6 12,3 16 9 18 10 NNW 1017,1 10
20.06.2018 23:00:00 13,9 13,0 21 11 22 12 NW 1017,7 10
20.06.2018 22:00:00 14,9 13,4 26 14 29 16 WNW 1017,0 10
20.06.2018 21:00:00 14,9 13,6 29 16 32 18 W 1016,8 10
20.06.2018 20:00:00 14,8 13,8 39 21 40 21 WZW 1016,9 10
20.06.2018 19:00:00 14,5 13,7 44 24 47 25 ZZW 1016,7 10
20.06.2018 18:00:00 14,6 13,7 44 24 43 23 ZZW 1017,3 10
20.06.2018 17:00:00 15,2 13,8 48 26 47 25 ZZW 1017,3 10
20.06.2018 16:00:00 15,0 13,8 48 26 47 25 ZZW 1017,6 10
20.06.2018 15:00:00 14,9 14,1 48 26 47 25 ZZW 1017,9 10
20.06.2018 14:00:00 14,4 14,4 48 26 47 25 ZZW 1018,1 4,4
20.06.2018 13:00:00 14,1 14,0 52 28 50 27 ZZW 1018,3 0,9
20.06.2018 12:00:00 13,8 13,7 52 28 54 29 ZZW 1018,5 0,8
20.06.2018 11:00:00 13,6 13,5 52 28 50 27 ZZW 1018,7 0,6
20.06.2018 10:00:00 13,5 13,4 42 23 43 23 ZZW 1019,2 0,8
20.06.2018 09:00:00 13,3 13,3 36 19 43 23 ZZW 1019,2 0,6
20.06.2018 08:00:00 13,5 13,4 39 21 40 21 ZZW 1019,2 1,1
20.06.2018 07:00:00 14,9 14,1 41 22 43 23 ZW 1019,3 10
20.06.2018 06:00:00 15,2 14,3 46 25 43 23 ZW 1019,2 10
20.06.2018 05:00:00 14,8 14,0 41 22 40 21 ZZW 1019,3 10
20.06.2018 04:00:00 14,9 14,0 40 21 43 23 ZW 1019,6 12
20.06.2018 03:00:00 15,0 14,0 48 26 47 25 ZZW 1019,9 10
20.06.2018 02:00:00 15,1 14,1 48 26 47 25 ZZW 1020,3 10
20.06.2018 01:00:00 15,1 14,0 46 25 47 25 ZZW 1020,7 10
20.06.2018 00:00:00 15,3 14,0 44 24 43 23 Z 1021,0 10
19.06.2018 23:00:00 15,3 14,0 44 24 43 23 ZZW 1021,5 10
19.06.2018 22:00:00 15,3 14,0 42 23 43 23 ZZW 1021,4 10
19.06.2018 21:00:00 15,4 14,3 25 14 36 19 Z 1021,8 18
19.06.2018 20:00:00 15,7 13,8 29 16 29 16 Z 1021,9 10
19.06.2018 19:00:00 15,2 13,4 21 11 22 12 Z 1022,2 10
19.06.2018 18:00:00 15,2 12,9 11 6 14 8 Z 1023,1 35
19.06.2018 17:00:00 15,3 13,4 18 10 18 10 ZZW 1023,3 10
19.06.2018 16:00:00 15,1 13,2 15 8 18 10 ZZW 1023,5 10
19.06.2018 15:00:00 14,9 11,7 13 7 14 8 ZZW 1023,5 10
19.06.2018 14:00:00 14,1 12,2 11 6 14 8 WZW 1023,5 10
19.06.2018 13:00:00 14,0 11,4 11 6 14 8 W 1023,4 10
19.06.2018 12:00:00 14,9 12,1 8 4 25 14 - 1022,7 10
19.06.2018 11:00:00 13,9 12,4 16 9 22 12 WNW 1022,5 10
19.06.2018 10:00:00 14,0 12,9 22 12 25 14 WNW 1022,0 10
19.06.2018 09:00:00 14,4 13,3 29 16 36 19 W 1021,6 10
19.06.2018 08:00:00 14,7 13,9 35 19 36 19 W 1020,9 10
19.06.2018 07:00:00 14,8 14,3 44 24 47 25 W 1019,9 4,6
19.06.2018 06:00:00 15,3 13,8 48 26 50 27 W 1019,2 10

tt = temperatuur
td = dauwpunt
ff = windsnelheid
fx = windstoten
dd = windrichting
ppp = luchtdruk
vv = zicht

Weerstations in de omgeving